Location: Ravensburg
(47.7866°N, 9.6124°E)
Time: 16:06:15
(UTC+02:00)

ITAMSAT 1 - Pass Details

Date: 18 March 2026
Orbit: 782 x 793 km, 98.7° (Epoch: 18 April)

Event Time Altitude Azimuth Distance (km) Brightness Sun altitude
Exits shadow 22:12:26 38° 305° (NW) 1,197 8.9 -34.3°
Drops below altitude 10° 22:15:59 10° 335° (NNW) 2,357 10.9 -34.7°
Sets 22:18:25 0° 341° (NNW) 3,292 11.7 -35.0°
